,,,PA_Meas_PMT16A,,PR_Meas_QMR101_102,,RH_Meas_QMH101,,SR_Meas_QMS101,,TA_Meas_QMH101,,GenWind,,GenWind,
date,time,status,PA,status,PR,status,RH,status,SR,status,TA,status,DirAvg,status,SpdAvg,
2009-10-04, 00:00:04,VALID,1000.88,VALID,0,VALID,86.4054,VALID,0,VALID,24.0525,VALID,10,VALID,1.03242,
2009-10-04, 00:01:04,VALID,1000.85,VALID,0,VALID,86.9395,VALID,0,VALID,24.0329,VALID,14,VALID,1.03164,
2009-10-04, 00:02:04,VALID,1000.86,VALID,0,VALID,86.6572,VALID,0,VALID,24.0329,VALID,14,VALID,0.943359,
2009-10-04, 00:03:04,VALID,1000.83,VALID,0,VALID,86.6954,VALID,0,VALID,23.9939,VALID,20,VALID,0.813672,
2009-10-04, 00:04:04,VALID,1000.85,VALID,0,VALID,86.7335,VALID,0,VALID,23.9549,VALID,20,VALID,0.967969,
2009-10-04, 00:05:04,VALID,1000.83,VALID,0,VALID,86.6877,VALID,0,VALID,23.8963,VALID,20,VALID,1.04375,
2009-10-04, 00:06:04,VALID,1000.81,VALID,0,VALID,86.8022,VALID,0,VALID,23.8573,VALID,20,VALID,0.820313,
2009-10-04, 00:07:04,VALID,1000.8,VALID,0,VALID,87.4736,VALID,0,VALID,23.8183,VALID,26,VALID,0.847656,
2009-10-04, 00:08:04,VALID,1000.79,VALID,0,VALID,87.3973,VALID,0,VALID,23.8183,VALID,41,VALID,0.803906,
2009-10-04, 00:09:04,VALID,1000.73,VALID,0,VALID,87.4354,VALID,0,VALID,23.8165,VALID,52,VALID,0.793359,
2009-10-04, 00:10:04,VALID,1000.74,VALID,0,VALID,87.6338,VALID,0,VALID,23.8183,VALID,53,VALID,0.862891,
2009-10-04, 00:11:04,VALID,1000.73,VALID,0,VALID,87.4812,VALID,0,VALID,23.8183,VALID,53,VALID,0.707812,
2009-10-04, 00:12:04,VALID,1000.71,VALID,0,VALID,87.3973,VALID,0,VALID,23.8183,VALID,53,VALID,0.722656,
2009-10-04, 00:13:04,VALID,1000.7,VALID,0,VALID,87.4812,VALID,0,VALID,23.7988,VALID,53,VALID,0.663281,
2009-10-04, 00:14:04,VALID,1000.69,VALID,0,VALID,87.4431,VALID,0,VALID,23.7988,VALID,53,VALID,0.553906,
2009-10-04, 00:15:04,VALID,1000.7,VALID,0,VALID,87.382,VALID,0,VALID,23.7793,VALID,53,VALID,0.458203,
2009-10-04, 00:16:04,VALID,1000.69,VALID,0,VALID,87.5423,VALID,0,VALID,23.7597,VALID,53,VALID,0.439453,
2009-10-04, 00:17:04,VALID,1000.71,VALID,0,VALID,87.7788,VALID,0,VALID,23.6994,VALID,53,VALID,0.489062,
2009-10-04, 00:18:04,VALID,1000.7,VALID,0,VALID,87.9009,VALID,0,VALID,23.7012,VALID,53,VALID,0.438672,
2009-10-04, 00:19:04,VALID,1000.7,VALID,0,VALID,88.0306,VALID,0,VALID,23.6604,VALID,53,VALID,0.333203,
2009-10-04, 00:20:04,VALID,1000.67,VALID,0,VALID,88,VALID,0,VALID,23.6604,VALID,53,VALID,0.1375,
2009-10-04, 00:21:04,VALID,1000.71,VALID,0,VALID,87.9771,VALID,0,VALID,23.6427,VALID,53,VALID,0,
2009-10-04, 00:22:04,VALID,1000.69,VALID,0,VALID,88.0534,VALID,0,VALID,23.6232,VALID,53,VALID,0,
2009-10-04, 00:23:04,VALID,1000.7,VALID,0,VALID,88.1526,VALID,0,VALID,23.6036,VALID,53,VALID,0.250391,
2009-10-04, 00:24:04,VALID,1000.69,VALID,0,VALID,88.2976,VALID,0,VALID,23.5841,VALID,71,VALID,0.586719,
2009-10-04, 00:25:04,VALID,1000.69,VALID,0,VALID,88.5723,VALID,0,VALID,23.6036,VALID,124,VALID,0.647656,
2009-10-04, 00:26:04,VALID,1000.67,VALID,0,VALID,88.496,VALID,0,VALID,23.6232,VALID,124,VALID,0.694922,
2009-10-04, 00:27:04,VALID,1000.65,VALID,0,VALID,88.3892,VALID,0,VALID,23.6427,VALID,124,VALID,0.890625,
2009-10-04, 00:28:04,VALID,1000.66,VALID,0,VALID,88.206,VALID,0,VALID,23.6817,VALID,124,VALID,0.773828,
2009-10-04, 00:29:04,VALID,1000.65,VALID,0,VALID,87.9543,VALID,0,VALID,23.7402,VALID,124,VALID,0.697656,
2009-10-04, 00:30:04,VALID,1000.65,VALID,0,VALID,87.8017,VALID,0,VALID,23.8006,VALID,124,VALID,0.610156,
2009-10-04, 00:31:04,VALID,1000.66,VALID,0,VALID,87.5804,VALID,0,VALID,23.8183,VALID,132,VALID,0.639063,
2009-10-04, 00:32:04,VALID,1000.66,VALID,0,VALID,87.3668,VALID,0,VALID,23.8573,VALID,139,VALID,0.615234,
2009-10-04, 00:33:04,VALID,1000.65,VALID,0,VALID,87.2981,VALID,0,VALID,23.8768,VALID,139,VALID,0.357422,
2009-10-04, 00:34:04,VALID,1000.68,VALID,0,VALID,87.321,VALID,0,VALID,23.8963,VALID,139,VALID,0.255469,
2009-10-04, 00:35:04,VALID,1000.62,VALID,0,VALID,87.1532,VALID,0,VALID,23.8963,VALID,139,VALID,0.254687,
2009-10-04, 00:36:04,VALID,1000.62,VALID,0,VALID,87.0082,VALID,0,VALID,23.8573,VALID,139,VALID,0.326953,
2009-10-04, 00:37:04,VALID,1000.63,VALID,0,VALID,87.2371,VALID,0,VALID,23.8183,VALID,139,VALID,0.330859,
2009-10-04, 00:38:04,VALID,1000.65,VALID,0,VALID,87.4049,VALID,0,VALID,23.7793,VALID,139,VALID,0.692969,
2009-10-04, 00:39:04,VALID,1000.63,VALID,0,VALID,87.9543,VALID,0,VALID,23.7793,VALID,139,VALID,1.07969,
2009-10-04, 00:40:04,VALID,1000.61,VALID,0,VALID,87.9237,VALID,0,VALID,23.7988,VALID,134,VALID,1.04922,
2009-10-04, 00:41:04,VALID,1000.59,VALID,0,VALID,87.794,VALID,0,VALID,23.8183,VALID,134,VALID,1.21289,
2009-10-04, 00:42:04,VALID,1000.57,VALID,0,VALID,87.733,VALID,0,VALID,23.8378,VALID,133,VALID,1.15,
2009-10-04, 00:43:04,VALID,1000.56,VALID,0,VALID,87.6796,VALID,0,VALID,23.8183,VALID,131,VALID,1.34648,
2009-10-04, 00:44:04,VALID,1000.51,VALID,0,VALID,87.7788,VALID,0,VALID,23.8183,VALID,135,VALID,1.29336,
2009-10-04, 00:45:04,VALID,1000.51,VALID,0,VALID,87.7635,VALID,0,VALID,23.7793,VALID,138,VALID,0.958203,
2009-10-04, 00:46:04,VALID,1000.49,VALID,0,VALID,87.9619,VALID,0,VALID,23.7793,VALID,138,VALID,1.02305,
2009-10-04, 00:47:04,VALID,1000.54,VALID,0,VALID,87.9771,VALID,0,VALID,23.7597,VALID,140,VALID,0.805859,
2009-10-04, 00:48:04,VALID,1000.56,VALID,0,VALID,87.9771,VALID,0,VALID,23.7207,VALID,140,VALID,0.549609,
2009-10-04, 00:49:04,VALID,1000.56,VALID,0,VALID,87.9237,VALID,0,VALID,23.7207,VALID,140,VALID,0.165625,
2009-10-04, 00:50:04,VALID,1000.57,VALID,0,VALID,87.9619,VALID,0,VALID,23.7012,VALID,140,VALID,0.159375,
2009-10-04, 00:51:04,VALID,1000.6,VALID,0,VALID,88,VALID,0,VALID,23.6817,VALID,81,VALID,0.40625,
2009-10-04, 00:52:04,VALID,1000.6,VALID,0,VALID,87.9771,VALID,0,VALID,23.6622,VALID,75,VALID,0.475781,
2009-10-04, 00:53:04,VALID,1000.57,VALID,0,VALID,88.1221,VALID,0,VALID,23.6214,VALID,59,VALID,0.594141,
2009-10-04, 00:54:04,VALID,1000.6,VALID,0,VALID,88.6104,VALID,0,VALID,23.6232,VALID,58,VALID,0.686328,
2009-10-04, 00:55:04,VALID,1000.58,VALID,0,VALID,88.7172,VALID,0,VALID,23.6427,VALID,58,VALID,0.725781,
2009-10-04, 00:56:04,VALID,1000.59,VALID,0,VALID,88.5189,VALID,0,VALID,23.6427,VALID,75,VALID,1.00977,
2009-10-04, 00:57:04,VALID,1000.56,VALID,0,VALID,88.4273,VALID,0,VALID,23.6427,VALID,87,VALID,1.12266,
2009-10-04, 00:58:04,VALID,1000.54,VALID,0,VALID,88.3968,VALID,0,VALID,23.6427,VALID,89,VALID,0.991406,
2009-10-04, 00:59:04,VALID,1000.47,VALID,0,VALID,88.3739,VALID,0,VALID,23.6427,VALID,89,VALID,0.721094,
2009-10-04, 01:00:04,VALID,1000.45,VALID,0,VALID,88.145,VALID,0,VALID,23.6427,VALID,89,VALID,0.686328,
2009-10-04, 01:01:04,VALID,1000.44,VALID,0,VALID,87.9237,VALID,0,VALID,23.6036,VALID,89,VALID,0.533203,
2009-10-04, 01:02:04,VALID,1000.44,VALID,0,VALID,87.8551,VALID,0,VALID,23.5841,VALID,89,VALID,0.407422,
2009-10-04, 01:03:04,VALID,1000.45,VALID,0,VALID,87.8093,VALID,0,VALID,23.5451,VALID,89,VALID,0.133594,
2009-10-04, 01:04:04,VALID,1000.47,VALID,0,VALID,87.8932,VALID,0,VALID,23.5451,VALID,89,VALID,0,
2009-10-04, 01:05:04,VALID,1000.44,VALID,0,VALID,87.9237,VALID,0,VALID,23.5256,VALID,89,VALID,0,
2009-10-04, 01:06:04,VALID,1000.43,VALID,0,VALID,87.9085,VALID,0,VALID,23.5451,VALID,89,VALID,0,
2009-10-04, 01:07:04,VALID,1000.43,VALID,0,VALID,87.9466,VALID,0,VALID,23.5841,VALID,89,VALID,0.152734,
2009-10-04, 01:08:04,VALID,1000.4,VALID,0,VALID,87.794,VALID,0,VALID,23.6036,VALID,89,VALID,0.197656,
2009-10-04, 01:09:04,VALID,1000.39,VALID,0,VALID,87.5957,VALID,0,VALID,23.6232,VALID,89,VALID,0.028125,
2009-10-04, 01:10:04,VALID,1000.4,VALID,0,VALID,87.4812,VALID,0,VALID,23.6427,VALID,89,VALID,0,
2009-10-04, 01:11:04,VALID,1000.42,VALID,0,VALID,87.3897,VALID,0,VALID,23.6427,VALID,89,VALID,0,
2009-10-04, 01:12:04,VALID,1000.41,VALID,0,VALID,87.321,VALID,0,VALID,23.6427,VALID,89,VALID,0.164453,
2009-10-04, 01:13:04,VALID,1000.39,VALID,0,VALID,87.1837,VALID,0,VALID,23.6427,VALID,89,VALID,0.00351562,
2009-10-04, 01:14:04,VALID,1000.42,VALID,0,VALID,87.0692,VALID,0,VALID,23.6427,VALID,89,VALID,0.289844,
2009-10-04, 01:15:04,VALID,1000.37,VALID,0,VALID,86.7946,VALID,0,VALID,23.6817,VALID,138,VALID,0.815625,
2009-10-04, 01:16:04,VALID,1000.38,VALID,0,VALID,86.2986,VALID,0,VALID,23.7402,VALID,140,VALID,0.830859,
2009-10-04, 01:17:04,VALID,1000.41,VALID,0,VALID,85.7035,VALID,0,VALID,23.7988,VALID,140,VALID,0.639844,
2009-10-04, 01:18:04,VALID,1000.39,VALID,0,VALID,85.5967,VALID,0,VALID,23.8165,VALID,140,VALID,0.255859,
2009-10-04, 01:19:04,VALID,1000.38,VALID,0,VALID,85.4136,VALID,0,VALID,23.8573,VALID,140,VALID,0.210938,
2009-10-04, 01:20:04,VALID,1000.38,VALID,0,VALID,85.2686,VALID,0,VALID,23.8573,VALID,140,VALID,0.0890625,
2009-10-04, 01:21:04,VALID,1000.35,VALID,0,VALID,85.2229,VALID,0,VALID,23.836,VALID,140,VALID,0.275781,
2009-10-04, 01:22:04,VALID,1000.34,VALID,0,VALID,85.2,VALID,0,VALID,23.8573,VALID,140,VALID,0.346484,
2009-10-04, 01:23:04,VALID,1000.35,VALID,0,VALID,84.8566,VALID,0,VALID,23.8378,VALID,140,VALID,0.403906,
2009-10-04, 01:24:04,VALID,1000.35,VALID,0,VALID,85.1084,VALID,0,VALID,23.8183,VALID,96,VALID,0.589844,
2009-10-04, 01:25:04,VALID,1000.38,VALID,0,VALID,85.116,VALID,0,VALID,23.7988,VALID,88,VALID,0.539844,
2009-10-04, 01:26:04,VALID,1000.37,VALID,0,VALID,85.1084,VALID,0,VALID,23.7793,VALID,88,VALID,0.555469,
2009-10-04, 01:27:04,VALID,1000.36,VALID,0,VALID,84.9558,VALID,0,VALID,23.7988,VALID,88,VALID,0.594531,
2009-10-04, 01:28:04,VALID,1000.37,VALID,0,VALID,84.8719,VALID,0,VALID,23.8183,VALID,84,VALID,0.714453,
2009-10-04, 01:29:04,VALID,1000.37,VALID,0,VALID,85.0474,VALID,0,VALID,23.8573,VALID,74,VALID,0.815234,
2009-10-04, 01:30:04,VALID,1000.38,VALID,0,VALID,85.8103,VALID,0,VALID,23.836,VALID,74,VALID,0.796875,
2009-10-04, 01:31:04,VALID,1000.41,VALID,0,VALID,86.1918,VALID,0,VALID,23.8768,VALID,74,VALID,0.732422,
2009-10-04, 01:32:04,VALID,1000.43,VALID,0,VALID,86.2834,VALID,0,VALID,23.8786,VALID,62,VALID,0.890625,
2009-10-04, 01:33:04,VALID,1000.39,VALID,0,VALID,85.6654,VALID,0,VALID,23.8183,VALID,37,VALID,1.43945,
2009-10-04, 01:34:04,VALID,1000.39,VALID,0,VALID,85.9019,VALID,0,VALID,23.7207,VALID,34,VALID,1.41602,
2009-10-04, 01:35:04,VALID,1000.42,VALID,0,VALID,86.5428,VALID,0,VALID,23.6019,VALID,34,VALID,1.24492,
2009-10-04, 01:36:04,VALID,1000.38,VALID,0,VALID,86.8174,VALID,0,VALID,23.5256,VALID,39,VALID,1.29922,
2009-10-04, 01:37:04,VALID,1000.39,VALID,0,VALID,87.0769,VALID,0,VALID,23.4263,VALID,37,VALID,1.11875,
2009-10-04, 01:38:04,VALID,1000.37,VALID,0,VALID,87.4126,VALID,0,VALID,23.3695,VALID,41,VALID,1.12461,
2009-10-04, 01:39:04,VALID,1000.39,VALID,0,VALID,87.7177,VALID,0.112286,VALID,23.2897,VALID,46,VALID,0.981641,
2009-10-04, 01:40:04,VALID,1000.4,VALID,0,VALID,88.1908,VALID,0,VALID,23.2915,VALID,45,VALID,0.551172,
2009-10-04, 01:41:04,VALID,1000.38,VALID,0,VALID,88.1526,VALID,0,VALID,23.2915,VALID,45,VALID,0.385938,
2009-10-04, 01:42:04,VALID,1000.39,VALID,0,VALID,87.9619,VALID,0,VALID,23.2915,VALID,45,VALID,0.257031,
2009-10-04, 01:43:04,VALID,1000.41,VALID,0,VALID,87.9314,VALID,0,VALID,23.2719,VALID,45,VALID,0.301953,
2009-10-04, 01:44:04,VALID,1000.43,VALID,0,VALID,88.0458,VALID,0,VALID,23.2719,VALID,45,VALID,0.168359,
2009-10-04, 01:45:04,VALID,1000.42,VALID,0,VALID,88.0534,VALID,0,VALID,23.2719,VALID,45,VALID,0,
2009-10-04, 01:46:04,VALID,1000.41,VALID,0,VALID,88.0153,VALID,0,VALID,23.2524,VALID,45,VALID,0,
2009-10-04, 01:47:04,VALID,1000.39,VALID,0,VALID,88.084,VALID,0,VALID,23.2329,VALID,45,VALID,0,
2009-10-04, 01:48:04,VALID,1000.4,VALID,0,VALID,88.2518,VALID,0,VALID,23.2117,VALID,45,VALID,0,
2009-10-04, 01:49:04,VALID,1000.41,VALID,0,VALID,88.4197,VALID,0,VALID,23.2329,VALID,45,VALID,0,
2009-10-04, 01:50:04,VALID,1000.4,VALID,0,VALID,88.4654,VALID,0,VALID,23.2117,VALID,45,VALID,0.290625,
2009-10-04, 01:51:04,VALID,1000.4,VALID,0,VALID,88.5036,VALID,0,VALID,23.2524,VALID,60,VALID,0.376563,
2009-10-04, 01:52:04,VALID,1000.38,VALID,0,VALID,88.4426,VALID,0,VALID,23.2312,VALID,63,VALID,0.344531,
2009-10-04, 01:53:04,VALID,1000.37,VALID,0,VALID,88.3739,VALID,0,VALID,23.2719,VALID,66,VALID,0.432422,
2009-10-04, 01:54:04,VALID,1000.39,VALID,0,VALID,88.084,VALID,0,VALID,23.311,VALID,77,VALID,0.331641,
2009-10-04, 01:55:04,VALID,1000.32,VALID,0,VALID,87.8703,VALID,0,VALID,23.35,VALID,125,VALID,0.415234,
2009-10-04, 01:56:04,VALID,1000.35,VALID,0,VALID,87.5804,VALID,0,VALID,23.389,VALID,125,VALID,0.359766,
2009-10-04, 01:57:04,VALID,1000.32,VALID,0,VALID,87.321,VALID,0,VALID,23.4298,VALID,125,VALID,0.119141,
2009-10-04, 01:58:04,VALID,1000.3,VALID,0,VALID,87.1608,VALID,0,VALID,23.428,VALID,125,VALID,0.0382813,
2009-10-04, 01:59:04,VALID,1000.26,VALID,0,VALID,87.0311,VALID,0,VALID,23.389,VALID,125,VALID,0.00507812,
2009-10-04, 02:00:04,VALID,1000.27,VALID,0,VALID,87.0082,VALID,0,VALID,23.3908,VALID,145,VALID,0.709375,
2009-10-04, 02:01:04,VALID,1000.28,VALID,0,VALID,87.0387,VALID,0,VALID,23.3695,VALID,151,VALID,0.736719,
2009-10-04, 02:02:04,VALID,1000.26,VALID,0,VALID,86.9777,VALID,0,VALID,23.428,VALID,152,VALID,0.775,
2009-10-04, 02:03:04,VALID,1000.28,VALID,0,VALID,86.5199,VALID,0,VALID,23.5256,VALID,159,VALID,0.900391,
2009-10-04, 02:04:04,VALID,1000.27,VALID,0,VALID,86.3978,VALID,0,VALID,23.6019,VALID,152,VALID,1.00273,
2009-10-04, 02:05:04,VALID,1000.24,VALID,0,VALID,86.0392,VALID,0,VALID,23.6427,VALID,148,VALID,0.919141,
2009-10-04, 02:06:04,VALID,1000.26,VALID,0,VALID,85.9629,VALID,0,VALID,23.703,VALID,144,VALID,1.14922,
2009-10-04, 02:07:04,VALID,1000.23,VALID,0,VALID,85.9019,VALID,0,VALID,23.6817,VALID,140,VALID,1.02305,
2009-10-04, 02:08:04,VALID,1000.21,VALID,0,VALID,85.9248,VALID,0,VALID,23.6817,VALID,140,VALID,0.805078,
2009-10-04, 02:09:04,VALID,1000.21,VALID,0,VALID,86.2452,VALID,0,VALID,23.6427,VALID,140,VALID,0.728906,
2009-10-04, 02:10:04,VALID,1000.22,VALID,0,VALID,86.3215,VALID,0,VALID,23.6427,VALID,140,VALID,0.447266,
2009-10-04, 02:11:04,VALID,1000.23,VALID,0,VALID,86.2757,VALID,0,VALID,23.6232,VALID,140,VALID,0.282031,
2009-10-04, 02:12:04,VALID,1000.25,VALID,0,VALID,86.2605,VALID,0,VALID,23.6036,VALID,140,VALID,0.309375,
2009-10-04, 02:13:04,VALID,1000.27,VALID,0,VALID,86.23,VALID,0,VALID,23.5841,VALID,140,VALID,0.480078,
2009-10-04, 02:14:04,VALID,1000.28,VALID,0,VALID,86.4512,VALID,0,VALID,23.5451,VALID,139,VALID,0.393359,
2009-10-04, 02:15:04,VALID,1000.29,VALID,0,VALID,86.8174,VALID,0,VALID,23.5256,VALID,139,VALID,0.462891,
2009-10-04, 02:16:04,VALID,1000.29,VALID,0,VALID,87.1303,VALID,0,VALID,23.5061,VALID,139,VALID,0.557031,
2009-10-04, 02:17:04,VALID,1000.29,VALID,0,VALID,87.1455,VALID,0,VALID,23.4671,VALID,110,VALID,0.787891,
2009-10-04, 02:18:04,VALID,1000.31,VALID,0,VALID,87.5194,VALID,0,VALID,23.428,VALID,107,VALID,0.854297,
2009-10-04, 02:19:04,VALID,1000.31,VALID,0,VALID,87.9009,VALID,0,VALID,23.3695,VALID,107,VALID,0.871875,
2009-10-04, 02:20:04,VALID,1000.3,VALID,0,VALID,88.0687,VALID,0,VALID,23.35,VALID,106,VALID,0.803906,
2009-10-04, 02:21:04,VALID,1000.33,VALID,0,VALID,88.29,VALID,0,VALID,23.2915,VALID,103,VALID,0.838672,
2009-10-04, 02:22:04,VALID,1000.32,VALID,0,VALID,88.5646,VALID,0,VALID,23.2524,VALID,101,VALID,0.897656,
2009-10-04, 02:23:04,VALID,1000.3,VALID,0,VALID,88.5646,VALID,0,VALID,23.2134,VALID,92,VALID,0.682422,
2009-10-04, 02:24:04,VALID,1000.3,VALID,0,VALID,88.6562,VALID,0,VALID,23.1549,VALID,73,VALID,0.81875,
2009-10-04, 02:25:04,VALID,1000.28,VALID,0,VALID,88.8317,VALID,0,VALID,23.1354,VALID,70,VALID,0.758984,
2009-10-04, 02:26:04,VALID,1000.31,VALID,0,VALID,89.0987,VALID,0,VALID,23.0751,VALID,61,VALID,0.655859,
2009-10-04, 02:27:04,VALID,1000.27,VALID,0,VALID,89.1216,VALID,0,VALID,23.0964,VALID,61,VALID,0.49375,
2009-10-04, 02:28:04,VALID,1000.27,VALID,0,VALID,89.0987,VALID,0,VALID,23.0573,VALID,61,VALID,0.430469,
2009-10-04, 02:29:04,VALID,1000.24,VALID,0,VALID,89.0834,VALID,0,VALID,23.0378,VALID,61,VALID,0.393359,
2009-10-04, 02:30:04,VALID,1000.19,VALID,0,VALID,89.2666,VALID,0,VALID,22.9793,VALID,61,VALID,0.352734,
2009-10-04, 02:31:04,VALID,1000.18,VALID,0,VALID,89.6251,VALID,0,VALID,22.9598,VALID,61,VALID,0.260156,
2009-10-04, 02:32:04,VALID,1000.18,VALID,0,VALID,89.7472,VALID,0,VALID,22.9403,VALID,61,VALID,0.167187,
2009-10-04, 02:33:04,VALID,1000.15,VALID,0,VALID,89.8922,VALID,0,VALID,22.9208,VALID,61,VALID,0.123438,
2009-10-04, 02:34:04,VALID,1000.12,VALID,0,VALID,89.9837,VALID,0,VALID,22.9013,VALID,61,VALID,0.00703125,
2009-10-04, 02:35:04,VALID,1000.11,VALID,0,VALID,90.0371,VALID,0,VALID,22.8818,VALID,61,VALID,0,
2009-10-04, 02:36:04,VALID,1000.11,VALID,0,VALID,90.0906,VALID,0,VALID,22.8818,VALID,61,VALID,0,
2009-10-04, 02:37:04,VALID,1000.11,VALID,0,VALID,90.1821,VALID,0,VALID,22.8427,VALID,61,VALID,0,
2009-10-04, 02:38:04,VALID,1000.05,VALID,0,VALID,90.2584,VALID,0,VALID,22.841,VALID,61,VALID,0.186328,
2009-10-04, 02:39:04,VALID,1000.07,VALID,0,VALID,90.266,VALID,0,VALID,22.8427,VALID,61,VALID,0.265625,
2009-10-04, 02:40:04,VALID,1000.04,VALID,0,VALID,90.144,VALID,0,VALID,22.8037,VALID,61,VALID,0.0015625,
2009-10-04, 02:41:04,VALID,1000.05,VALID,0,VALID,90.2126,VALID,0,VALID,22.763,VALID,61,VALID,0,
2009-10-04, 02:42:04,VALID,1000.05,VALID,0,VALID,90.2889,VALID,0,VALID,22.7647,VALID,61,VALID,0.107813,
2009-10-04, 02:43:04,VALID,1000.06,VALID,0,VALID,90.2431,VALID,0,VALID,22.7257,VALID,61,VALID,0.312891,
2009-10-04, 02:44:04,VALID,1000.04,VALID,0,VALID,90.5407,VALID,0,VALID,22.7274,VALID,61,VALID,0.378516,
2009-10-04, 02:45:04,VALID,1000.05,VALID,0,VALID,90.6933,VALID,0,VALID,22.7469,VALID,61,VALID,0.475,
2009-10-04, 02:46:04,VALID,1000.05,VALID,0,VALID,90.6857,VALID,0,VALID,22.7062,VALID,61,VALID,0.185937,
2009-10-04, 02:47:04,VALID,1000.06,VALID,0,VALID,90.6704,VALID,0,VALID,22.7274,VALID,61,VALID,0.301562,
2009-10-04, 02:48:04,VALID,1000.06,VALID,0,VALID,90.5636,VALID,0,VALID,22.7062,VALID,61,VALID,0,
2009-10-04, 02:49:04,VALID,1000.08,VALID,0,VALID,90.5407,VALID,0,VALID,22.7062,VALID,61,VALID,0.187109,
2009-10-04, 02:50:04,VALID,1000.06,VALID,0,VALID,90.5788,VALID,0,VALID,22.7062,VALID,61,VALID,0.257422,
2009-10-04, 02:51:04,VALID,1000.06,VALID,0,VALID,90.4263,VALID,0,VALID,22.7257,VALID,61,VALID,0.414844,
2009-10-04, 02:52:04,VALID,1000.03,VALID,0,VALID,90.4644,VALID,0,VALID,22.7452,VALID,61,VALID,0.550781,
2009-10-04, 02:53:04,VALID,1000.02,VALID,0,VALID,90.4415,VALID,0,VALID,22.7842,VALID,61,VALID,0.628516,
2009-10-04, 02:54:04,VALID,1000.02,VALID,0,VALID,90.1211,VALID,0,VALID,22.825,VALID,29,VALID,0.661719,
2009-10-04, 02:55:04,VALID,1000.01,VALID,0,VALID,89.6862,VALID,0,VALID,22.7842,VALID,29,VALID,0.588672,
2009-10-04, 02:56:04,VALID,1000.02,VALID,0,VALID,89.9303,VALID,0,VALID,22.7664,VALID,36,VALID,0.601953,
2009-10-04, 02:57:04,VALID,1000.05,VALID,0,VALID,90.0295,VALID,0,VALID,22.7647,VALID,50,VALID,0.647656,
2009-10-04, 02:58:04,VALID,1000.05,VALID,0,VALID,89.6633,VALID,0,VALID,22.7664,VALID,65,VALID,0.692969,
2009-10-04, 02:59:04,VALID,1000.06,VALID,0,VALID,89.3734,VALID,0,VALID,22.7274,VALID,77,VALID,0.813672,
2009-10-04, 03:00:04,VALID,1000.11,VALID,0,VALID,89.3276,VALID,0,VALID,22.7469,VALID,92,VALID,1.10039,
2009-10-04, 03:01:04,VALID,1000.08,VALID,0,VALID,88.9156,VALID,0,VALID,22.7664,VALID,92,VALID,0.913672,
2009-10-04, 03:02:04,VALID,1000.1,VALID,0,VALID,88.969,VALID,0,VALID,22.8232,VALID,92,VALID,0.783594,
2009-10-04, 03:03:04,VALID,1000.12,VALID,0,VALID,88.4502,VALID,0,VALID,22.8818,VALID,93,VALID,0.542578,
2009-10-04, 03:04:04,VALID,1000.09,VALID,0,VALID,88.0687,VALID,0,VALID,22.9208,VALID,93,VALID,0.457031,
2009-10-04, 03:05:04,VALID,1000.11,VALID,0,VALID,87.7788,VALID,0,VALID,22.9811,VALID,93,VALID,0.382031,
2009-10-04, 03:06:04,VALID,1000.13,VALID,0,VALID,87.7483,VALID,0,VALID,22.9598,VALID,93,VALID,0.427344,
2009-10-04, 03:07:04,VALID,1000.11,VALID,0,VALID,87.6796,VALID,0,VALID,22.9793,VALID,93,VALID,0.357812,
2009-10-04, 03:08:04,VALID,1000.12,VALID,0,VALID,87.8551,VALID,0,VALID,22.9793,VALID,80,VALID,0.469141,
2009-10-04, 03:09:04,VALID,1000.13,VALID,0,VALID,87.7788,VALID,0,VALID,23.0006,VALID,80,VALID,0.644922,
2009-10-04, 03:10:04,VALID,1000.07,VALID,0,VALID,87.9085,VALID,0,VALID,22.9598,VALID,75,VALID,0.624609,
2009-10-04, 03:11:04,VALID,1000.08,VALID,0,VALID,87.7483,VALID,0,VALID,22.9403,VALID,67,VALID,0.555078,
2009-10-04, 03:12:04,VALID,1000.09,VALID,0,VALID,87.8169,VALID,0,VALID,22.942,VALID,43,VALID,0.450781,
2009-10-04, 03:13:04,VALID,1000.07,VALID,0,VALID,87.6643,VALID,0,VALID,22.9225,VALID,31,VALID,0.609375,
2009-10-04, 03:14:04,VALID,1000.07,VALID,0,VALID,87.4202,VALID,0,VALID,22.8623,VALID,25,VALID,0.805469,
2009-10-04, 03:15:04,VALID,1000.05,VALID,0,VALID,87.3134,VALID,0,VALID,22.864,VALID,23,VALID,1.03047,
2009-10-04, 03:16:04,VALID,1000.05,VALID,0,VALID,87.0082,VALID,0,VALID,22.8427,VALID,22,VALID,0.942969,
2009-10-04, 03:17:04,VALID,1000.04,VALID,0,VALID,86.6877,VALID,0,VALID,22.9225,VALID,21,VALID,0.933984,
2009-10-04, 03:18:04,VALID,1000.06,VALID,0,VALID,86.7335,VALID,0,VALID,22.903,VALID,21,VALID,0.998828,
2009-10-04, 03:19:04,VALID,1000.06,VALID,0,VALID,86.7564,VALID,0,VALID,22.942,VALID,21,VALID,1.10703,
2009-10-04, 03:20:04,VALID,1000.08,VALID,0,VALID,86.9166,VALID,0,VALID,22.942,VALID,18,VALID,1.06367,
2009-10-04, 03:21:04,VALID,1000.09,VALID,0,VALID,87.3897,VALID,0,VALID,22.9208,VALID,18,VALID,0.880078,
2009-10-04, 03:22:04,VALID,1000.08,VALID,0,VALID,87.1532,VALID,0,VALID,22.8818,VALID,18,VALID,0.465234,
2009-10-04, 03:23:04,VALID,1000.12,VALID,0,VALID,87.2676,VALID,0,VALID,22.8232,VALID,18,VALID,0.444922,
2009-10-04, 03:24:04,VALID,1000.12,VALID,0,VALID,87.7101,VALID,0,VALID,22.8055,VALID,13,VALID,0.595703,
2009-10-04, 03:25:04,VALID,1000.11,VALID,0,VALID,88.0382,VALID,0,VALID,22.7452,VALID,1,VALID,0.567187,
2009-10-04, 03:26:04,VALID,1000.11,VALID,0,VALID,88.2823,VALID,0,VALID,22.7664,VALID,1,VALID,0.419141,
2009-10-04, 03:27:04,VALID,1000.11,VALID,0,VALID,88.4426,VALID,0,VALID,22.7452,VALID,1,VALID,0.322266,
2009-10-04, 03:28:04,VALID,1000.08,VALID,0,VALID,88.5417,VALID,0,VALID,22.7257,VALID,1,VALID,0.330859,
2009-10-04, 03:29:04,VALID,1000.11,VALID,0,VALID,88.6104,VALID,0,VALID,22.7469,VALID,1,VALID,0.426562,
2009-10-04, 03:30:04,VALID,1000.09,VALID,0,VALID,88.6409,VALID,0,VALID,22.7257,VALID,1,VALID,0.479688,
2009-10-04, 03:31:04,VALID,1000.1,VALID,0,VALID,88.557,VALID,0,VALID,22.7257,VALID,1,VALID,0.636719,
2009-10-04, 03:32:04,VALID,1000.12,VALID,0,VALID,88.3968,VALID,0,VALID,22.7062,VALID,1,VALID,0.791797,
2009-10-04, 03:33:04,VALID,1000.15,VALID,0,VALID,88.3281,VALID,0,VALID,22.6672,VALID,1,VALID,0.561328,
2009-10-04, 03:34:04,VALID,1000.16,VALID,0,VALID,88.5494,VALID,0,VALID,22.6282,VALID,1,VALID,0.58125,
2009-10-04, 03:35:04,VALID,1000.17,VALID,0,VALID,88.6104,VALID,0,VALID,22.6087,VALID,1,VALID,0.369922,
2009-10-04, 03:36:04,VALID,1000.14,VALID,0,VALID,88.8088,VALID,0,VALID,22.5892,VALID,1,VALID,0.210156,
2009-10-04, 03:37:04,VALID,1000.17,VALID,0,VALID,88.4731,VALID,0,VALID,22.5306,VALID,1,VALID,0.219141,
2009-10-04, 03:38:04,VALID,1000.14,VALID,0,VALID,88.7401,VALID,0,VALID,22.4916,VALID,1,VALID,0.272266,
2009-10-04, 03:39:04,VALID,1000.15,VALID,0,VALID,88.7554,VALID,0,VALID,22.4526,VALID,1,VALID,0.377344,
2009-10-04, 03:40:04,VALID,1000.16,VALID,0,VALID,88.9385,VALID,0,VALID,22.4136,VALID,1,VALID,0.500781,
2009-10-04, 03:41:04,VALID,1000.16,VALID,0,VALID,89.2589,VALID,0,VALID,22.4153,VALID,1,VALID,0.345703,
2009-10-04, 03:42:04,VALID,1000.17,VALID,0,VALID,89.236,VALID,0,VALID,22.3941,VALID,1,VALID,0.468359,
2009-10-04, 03:43:04,VALID,1000.2,VALID,0,VALID,89.1674,VALID,0,VALID,22.3746,VALID,1,VALID,0.544141,
2009-10-04, 03:44:04,VALID,1000.19,VALID,0,VALID,89.2437,VALID,0,VALID,22.3746,VALID,37,VALID,0.594922,
2009-10-04, 03:45:04,VALID,1000.19,VALID,0,VALID,89.3963,VALID,0,VALID,22.3941,VALID,65,VALID,0.7,
2009-10-04, 03:46:04,VALID,1000.2,VALID,0,VALID,89.7854,VALID,0,VALID,22.4543,VALID,71,VALID,0.656641,
2009-10-04, 03:47:04,VALID,1000.21,VALID,0,VALID,89.6251,VALID,0,VALID,22.5128,VALID,71,VALID,0.598437,